| time (UTC) | temp F | wind direction | speed MPH | gust MPH | rain 1hr in | rain 24hr in | rain mn in | humidity % | barometer mb |
| 20260503013010 | 89 | 121 | 2.0 | 0.0 | 0.00 | 0.00 | 0.00 | 13 | 1006.2 |
| 20260503011515 | 89 | 121 | 3.0 | 0.0 | 0.00 | 0.00 | 0.00 | 13 | 1006.2 |
| 20260503010009 | 90 | 121 | 1.0 | 0.0 | 0.00 | 0.00 | 0.00 | 13 | 1006.4 |
| 20260503004509 | 90 | 121 | 3.0 | 0.0 | 0.00 | 0.00 | 0.00 | 14 | 1006.5 |
| 20260503003008 | 90 | 115 | 1.0 | 0.0 | 0.00 | 0.00 | 0.00 | 14 | 1006.4 |
| 20260503001507 | 89 | 119 | 5.0 | 0.0 | 0.00 | 0.00 | 0.00 | 13 | 1006.5 |
| 20260503000007 | 90 | 122 | 2.0 | 0.0 | 0.00 | 0.00 | 0.00 | 13 | 1006.5 |
| 20260502234512 | 89 | 121 | 4.0 | 0.0 | 0.00 | 0.00 | 0.00 | 13 | 1006.7 |
| 20260502233004 | 90 | 184 | 4.0 | 0.0 | 0.00 | 0.00 | 0.00 | 14 | 1006.7 |
| 20260502231504 | 89 | 315 | 5.0 | 0.0 | 0.00 | 0.00 | 0.00 | 14 | 1006.8 |
| 20260502230004 | 89 | 271 | 5.0 | 0.0 | 0.00 | 0.00 | 0.00 | 14 | 1006.9 |
| 20260502224503 | 89 | 253 | 5.0 | 0.0 | 0.00 | 0.00 | 0.00 | 14 | 1007.0 |
| 20260502223002 | 90 | 232 | 8.0 | 0.0 | 0.00 | 0.00 | 0.00 | 15 | 1006.8 |
| 20260502221602 | 90 | 118 | 3.0 | 0.0 | 0.00 | 0.00 | 0.00 | 14 | 1007.3 |
| 20260502220058 | 88 | 51 | 3.0 | 0.0 | 0.00 | 0.00 | 0.00 | 15 | 1007.8 |
| 20260502214557 | 89 | 99 | 4.0 | 0.0 | 0.00 | 0.00 | 0.00 | 15 | 1007.8 |
| 20260502213106 | 89 | 157 | 5.0 | 0.0 | 0.00 | 0.00 | 0.00 | 15 | 1008.0 |
| 20260502211556 | 89 | 189 | 7.0 | 0.0 | 0.00 | 0.00 | 0.00 | 15 | 1008.2 |
| 20260502210054 | 88 | 203 | 5.0 | 0.0 | 0.00 | 0.00 | 0.00 | 15 | 1008.5 |
| 20260502204602 | 89 | 212 | 7.0 | 0.0 | 0.00 | 0.00 | 0.00 | 15 | 1008.8 |
| 20260502203053 | 88 | 171 | 6.0 | 0.0 | 0.00 | 0.00 | 0.00 | 16 | 1008.9 |
| 20260502201551 | 88 | 164 | 5.0 | 0.0 | 0.00 | 0.00 | 0.00 | 18 | 1009.0 |
| 20260502200050 | 88 | 132 | 3.0 | 0.0 | 0.00 | 0.00 | 0.00 | 18 | 1009.3 |
| 20260502194549 | 87 | 85 | 5.0 | 0.0 | 0.00 | 0.00 | 0.00 | 19 | 1009.4 |
| 20260502193051 | 87 | 154 | 5.0 | 0.0 | 0.00 | 0.00 | 0.00 | 20 | 1009.7 |
| 20260502191548 | 86 | 113 | 5.0 | 0.0 | 0.00 | 0.00 | 0.00 | 21 | 1010.1 |
| 20260502190044 | 86 | 106 | 4.0 | 0.0 | 0.00 | 0.00 | 0.00 | 21 | 1010.2 |
| 20260502184552 | 86 | 105 | 6.0 | 0.0 | 0.00 | 0.00 | 0.00 | 21 | 1010.5 |
| 20260502183037 | 85 | 138 | 6.0 | 0.0 | 0.00 | 0.00 | 0.00 | 21 | 1010.7 |
| 20260502181539 | 85 | 91 | 5.0 | 0.0 | 0.00 | 0.00 | 0.00 | 21 | 1011.0 |
| 20260502163007 | 81 | 115 | 4.0 | 0.0 | 0.00 | 0.00 | 0.00 | 27 | 1011.1 |
| 20260502161503 | 81 | 121 | 4.0 | 0.0 | 0.00 | 0.00 | 0.00 | 28 | 1011.2 |
| 20260502151553 | 78 | 121 | 3.0 | 0.0 | 0.00 | 0.00 | 0.00 | 29 | 1010.7 |
| 20260502123012 | 65 | 292 | 0.0 | 0.0 | 0.00 | 0.00 | 0.00 | 34 | 1009.1 |
| 20260502121532 | 65 | 292 | 0.0 | 0.0 | 0.00 | 0.00 | 0.00 | 33 | 1008.9 |
| 20260502114505 | 67 | 292 | 0.0 | 0.0 | 0.00 | 0.00 | 0.00 | 33 | 1008.6 |
| 20260502113004 | 67 | 292 | 0.0 | 0.0 | 0.00 | 0.00 | 0.00 | 33 | 1008.6 |
| 20260502111502 | 67 | 292 | 0.0 | 0.0 | 0.00 | 0.00 | 0.00 | 33 | 1008.6 |
| 20260502110001 | 68 | 292 | 0.0 | 0.0 | 0.00 | 0.00 | 0.00 | 32 | 1008.6 |
| 20260502104600 | 68 | 292 | 0.0 | 0.0 | 0.00 | 0.00 | 0.00 | 32 | 1008.4 |
| 20260502103108 | 69 | 292 | 0.0 | 0.0 | 0.00 | 0.00 | 0.00 | 30 | 1008.2 |
| 20260502101609 | 70 | 292 | 0.0 | 0.0 | 0.00 | 0.00 | 0.00 | 29 | 1008.1 |
| 20260502070036 | 74 | 288 | 1.0 | 0.0 | 0.00 | 0.00 | 0.00 | 27 | 1007.7 |
| 20260502064536 | 74 | 288 | 2.0 | 0.0 | 0.00 | 0.00 | 0.00 | 27 | 1007.6 |
| 20260502063034 | 75 | 288 | 1.0 | 0.0 | 0.00 | 0.00 | 0.00 | 25 | 1007.5 |
| 20260502061537 | 75 | 288 | 3.0 | 0.0 | 0.00 | 0.00 | 0.00 | 26 | 1007.2 |
| 20260502060033 | 76 | 288 | 2.0 | 0.0 | 0.00 | 0.00 | 0.00 | 25 | 1007.2 |
| 20260502054540 | 77 | 288 | 2.0 | 0.0 | 0.00 | 0.00 | 0.00 | 25 | 1007.1 |
| 20260502053037 | 77 | 287 | 0.0 | 0.0 | 0.00 | 0.00 | 0.00 | 25 | 1007.1 |
| 20260502051533 | 77 | 287 | 0.0 | 0.0 | 0.00 | 0.00 | 0.00 | 24 | 1007.0 |
| 20260502050031 | 78 | 288 | 0.0 | 0.0 | 0.00 | 0.00 | 0.00 | 24 | 1007.0 |
| 20260502044530 | 78 | 288 | 0.0 | 0.0 | 0.00 | 0.00 | 0.00 | 25 | 1007.0 |
| 20260502043031 | 78 | 288 | 0.0 | 0.0 | 0.00 | 0.00 | 0.00 | 25 | 1006.7 |
| 20260502041530 | 79 | 287 | 0.0 | 0.0 | 0.00 | 0.00 | 0.00 | 24 | 1006.6 |
| 20260502040030 | 79 | 288 | 0.0 | 0.0 | 0.00 | 0.00 | 0.00 | 22 | 1006.5 |
| 20260502034529 | 80 | 287 | 0.0 | 0.0 | 0.00 | 0.00 | 0.00 | 22 | 1006.4 |
| 20260502033039 | 81 | 287 | 0.0 | 0.0 | 0.00 | 0.00 | 0.00 | 21 | 1006.1 |
| 20260502031528 | 82 | 288 | 0.0 | 0.0 | 0.00 | 0.00 | 0.00 | 19 | 1005.8 |
| 20260502030028 | 82 | 288 | 0.0 | 0.0 | 0.00 | 0.00 | 0.00 | 19 | 1005.9 |
| 20260502024527 | 82 | 288 | 0.0 | 0.0 | 0.00 | 0.00 | 0.00 | 20 | 1005.6 |
| 20260502023027 | 83 | 287 | 2.0 | 0.0 | 0.00 | 0.00 | 0.00 | 19 | 1005.4 |
| 20260502021526 | 83 | 294 | 3.0 | 0.0 | 0.00 | 0.00 | 0.00 | 19 | 1005.3 |
| 20260502020026 | 84 | 38 | 3.0 | 0.0 | 0.00 | 0.00 | 0.00 | 19 | 1005.3 |
| 20260502014528 | 85 | 263 | 2.0 | 0.0 | 0.00 | 0.00 | 0.00 | 18 | 1005.3 |